Location: Lane
(33.5226°N, 79.8788°W)
Time: 22:12:12
(UTC+00:00)

Tiros 1 - Pass Details

Date: 06 October 2022
Orbit: 629 x 662 km, 48.4° (Epoch: 08 December)

Event Time Altitude Azimuth Distance (km) Brightness Sun altitude
Exits shadow 09:28:05 42° 337° (NNW) 923 7.8 -23.5°
Maximum altitude 09:29:26 61° 36° (NE) 734 7.5 -23.3°
Drops below altitude 10° 09:34:04 10° 117° (ESE) 2,031 10.4 -22.3°
Sets 09:36:24 0° 120° (ESE) 2,932 11.3 -21.8°
